Time,TemperatureF,DewpointF,PressureIn,WindDirection,WindDirectionDegrees,WindSpeedMPH,WindSpeedGustMPH,Humidity,HourlyPrecipIn,Conditions,Clouds,dailyrainin,SolarRadiationWatts/m^2,SoftwareType,DateUTC
2013-01-31 04:02:00,59.0,56.0,-100.00,North,355,2.0,6.0,89,0.00,,,0.01,0.000000,,2013-01-31 14:02:00,
2013-01-31 04:11:00,59.0,56.0,-100.00,North,355,2.0,6.0,89,0.00,,,0.01,0.000000,,2013-01-31 14:11:00,
2013-01-31 04:21:00,59.0,56.0,-100.00,North,355,2.0,6.0,89,0.00,,,0.01,0.000000,,2013-01-31 14:21:00,
2013-01-31 04:42:00,58.0,55.0,-100.00,North,357,3.0,8.0,90,0.00,,,0.01,0.000000,,2013-01-31 14:42:00,
2013-01-31 04:52:00,58.0,55.0,-100.00,North,357,3.0,8.0,90,0.00,,,0.01,0.000000,,2013-01-31 14:52:00,
2013-01-31 05:02:00,58.0,55.0,-100.00,North,357,3.0,8.0,90,0.00,,,0.01,0.000000,,2013-01-31 15:02:00,
2013-01-31 05:11:00,58.0,55.0,-100.00,North,357,3.0,8.0,90,0.00,,,0.01,0.000000,,2013-01-31 15:11:00,
2013-01-31 05:21:00,58.0,55.0,-100.00,North,357,3.0,8.0,90,0.00,,,0.01,0.000000,,2013-01-31 15:21:00,
2013-01-31 05:42:00,57.0,-99.9,-100.00,North,355,2.0,6.0,-999,0.00,,,0.00,0.000000,,2013-01-31 15:42:00,
2013-01-31 05:52:00,57.0,-99.9,-100.00,North,355,2.0,6.0,-999,0.00,,,0.00,0.000000,,2013-01-31 15:52:00,
2013-01-31 06:04:00,57.0,-99.9,-100.00,North,355,2.0,6.0,-999,0.00,,,0.00,0.000000,,2013-01-31 16:04:00,
2013-01-31 06:13:00,57.0,-99.9,-100.00,North,355,2.0,6.0,-999,0.00,,,0.00,0.000000,,2013-01-31 16:13:00,
2013-01-31 06:22:00,57.0,-99.9,-100.00,North,355,2.0,6.0,-999,0.00,,,0.00,0.000000,,2013-01-31 16:22:00,
2013-01-31 06:23:00,59.0,-99.9,-100.00,North,354,1.0,6.0,-999,0.00,,,0.00,0.000000,,2013-01-31 16:23:00,
2013-01-31 06:42:00,59.0,-99.9,-100.00,North,354,1.0,6.0,-999,0.00,,,0.00,0.000000,,2013-01-31 16:42:00,
2013-01-31 06:52:00,59.0,-99.9,-100.00,North,354,1.0,6.0,-999,0.00,,,0.00,0.000000,,2013-01-31 16:52:00,
2013-01-31 07:03:00,59.0,-99.9,-100.00,North,354,1.0,6.0,-999,0.00,,,0.00,0.000000,,2013-01-31 17:03:00,
2013-01-31 07:13:00,59.0,-99.9,-100.00,North,354,1.0,6.0,-999,0.00,,,0.00,0.000000,,2013-01-31 17:13:00,
2013-01-31 07:54:00,58.0,-99.9,-100.00,North,2,1.0,4.0,-999,0.00,,,0.00,0.000000,,2013-01-31 17:54:00,
2013-01-31 08:03:00,58.0,-99.9,-100.00,North,2,1.0,4.0,-999,0.00,,,0.00,0.000000,,2013-01-31 18:03:00,
2013-01-31 08:13:00,58.0,-99.9,-100.00,North,2,1.0,4.0,-999,0.00,,,0.00,0.000000,,2013-01-31 18:13:00,
2013-01-31 08:22:00,58.0,-99.9,-100.00,North,2,1.0,4.0,-999,0.00,,,0.00,0.000000,,2013-01-31 18:22:00,
2013-01-31 08:43:00,58.0,54.0,-100.00,North,359,3.0,7.0,88,0.00,,,-99.99,34.000000,,2013-01-31 18:43:00,
2013-01-31 08:52:00,58.0,54.0,-100.00,North,359,3.0,7.0,88,0.00,,,-99.99,34.000000,,2013-01-31 18:52:00,
2013-01-31 09:02:00,58.0,54.0,-100.00,North,359,3.0,7.0,88,0.00,,,-99.99,34.000000,,2013-01-31 19:02:00,
2013-01-31 09:11:00,58.0,54.0,-100.00,North,359,3.0,7.0,88,0.00,,,-99.99,34.000000,,2013-01-31 19:11:00,
2013-01-31 09:21:00,58.0,54.0,-100.00,North,359,3.0,7.0,88,0.00,,,-99.99,34.000000,,2013-01-31 19:21:00,
2013-01-31 09:43:00,63.0,56.0,-100.00,NE,45,3.0,10.0,77,0.00,,,0.00,257.000000,,2013-01-31 19:43:00,
2013-01-31 09:52:00,63.0,56.0,-100.00,NE,45,3.0,10.0,77,0.00,,,0.00,257.000000,,2013-01-31 19:52:00,
2013-01-31 10:02:00,63.0,56.0,-100.00,NE,45,3.0,10.0,77,0.00,,,0.00,257.000000,,2013-01-31 20:02:00,
2013-01-31 10:11:00,63.0,56.0,-100.00,NE,45,3.0,10.0,77,0.00,,,0.00,257.000000,,2013-01-31 20:11:00,
2013-01-31 10:21:00,63.0,56.0,-100.00,NE,45,3.0,10.0,77,0.00,,,0.00,257.000000,,2013-01-31 20:21:00,
2013-01-31 10:42:00,63.0,56.0,-100.00,NNE,31,2.0,9.0,77,0.00,,,0.00,279.000000,,2013-01-31 20:42:00,
2013-01-31 10:52:00,63.0,56.0,-100.00,NNE,31,2.0,9.0,77,0.00,,,0.00,279.000000,,2013-01-31 20:52:00,
2013-01-31 11:02:00,63.0,56.0,-100.00,NNE,31,2.0,9.0,77,0.00,,,0.00,279.000000,,2013-01-31 21:02:00,
2013-01-31 11:11:00,63.0,56.0,-100.00,NNE,31,2.0,9.0,77,0.00,,,0.00,279.000000,,2013-01-31 21:11:00,
2013-01-31 11:21:00,63.0,56.0,-100.00,NNE,31,2.0,9.0,77,0.00,,,0.00,279.000000,,2013-01-31 21:21:00,
2013-01-31 11:42:00,66.0,57.0,-100.00,NNE,25,3.0,12.0,72,0.00,,,0.00,464.000000,,2013-01-31 21:42:00,
2013-01-31 11:52:00,66.0,57.0,-100.00,NNE,25,3.0,12.0,72,0.00,,,0.00,464.000000,,2013-01-31 21:52:00,
2013-01-31 12:02:00,66.0,57.0,-100.00,NNE,25,3.0,12.0,72,0.00,,,0.00,464.000000,,2013-01-31 22:02:00,
2013-01-31 12:11:00,66.0,57.0,-100.00,NNE,25,3.0,12.0,72,0.00,,,0.00,464.000000,,2013-01-31 22:11:00,
2013-01-31 12:21:00,66.0,57.0,-100.00,NNE,25,3.0,12.0,72,0.00,,,0.00,464.000000,,2013-01-31 22:21:00,
2013-01-31 12:42:00,65.0,60.0,-100.00,SSE,153,2.0,10.0,84,0.00,,,0.00,264.000000,,2013-01-31 22:42:00,
2013-01-31 12:52:00,65.0,60.0,-100.00,SSE,153,2.0,10.0,84,0.00,,,0.00,264.000000,,2013-01-31 22:52:00,
2013-01-31 13:02:00,65.0,60.0,-100.00,SSE,153,2.0,10.0,84,0.00,,,0.00,264.000000,,2013-01-31 23:02:00,
2013-01-31 13:12:00,65.0,60.0,-100.00,SSE,153,2.0,10.0,84,0.00,,,0.00,264.000000,,2013-01-31 23:12:00,
2013-01-31 13:21:00,65.0,60.0,-100.00,SSE,153,2.0,10.0,84,0.00,,,0.00,264.000000,,2013-01-31 23:21:00,
2013-01-31 13:42:00,63.0,58.0,-100.00,SE,134,2.0,8.0,85,0.00,,,0.00,336.000000,,2013-01-31 23:42:00,
2013-01-31 13:52:00,63.0,58.0,-100.00,SE,134,2.0,8.0,85,0.00,,,0.00,336.000000,,2013-01-31 23:52:00,
2013-01-31 14:01:00,63.0,58.0,-100.00,SE,134,2.0,8.0,85,0.00,,,0.00,336.000000,,2013-02-01 00:01:00,
2013-01-31 14:11:00,63.0,58.0,-100.00,SE,134,2.0,8.0,85,0.00,,,0.00,336.000000,,2013-02-01 00:11:00,
2013-01-31 14:21:00,63.0,58.0,-100.00,SE,134,2.0,8.0,85,0.00,,,0.00,336.000000,,2013-02-01 00:21:00,
2013-01-31 14:42:00,64.0,58.0,-100.00,East,93,2.0,9.0,82,0.00,,,0.00,317.000000,,2013-02-01 00:42:00,
2013-01-31 14:52:00,64.0,58.0,-100.00,East,93,2.0,9.0,82,0.00,,,0.00,317.000000,,2013-02-01 00:52:00,
2013-01-31 15:01:00,64.0,58.0,-100.00,East,93,2.0,9.0,82,0.00,,,0.00,317.000000,,2013-02-01 01:01:00,
2013-01-31 15:11:00,64.0,58.0,-100.00,East,93,2.0,9.0,82,0.00,,,0.00,317.000000,,2013-02-01 01:11:00,
2013-01-31 15:21:00,64.0,58.0,-100.00,East,93,2.0,9.0,82,0.00,,,0.00,317.000000,,2013-02-01 01:21:00,
2013-01-31 15:42:00,65.0,59.0,-100.00,ESE,110,3.0,10.0,81,0.00,,,0.00,374.000000,,2013-02-01 01:42:00,
2013-01-31 15:52:00,65.0,59.0,-100.00,ESE,110,3.0,10.0,81,0.00,,,0.00,374.000000,,2013-02-01 01:52:00,
2013-01-31 16:01:00,65.0,59.0,-100.00,ESE,110,3.0,10.0,81,0.00,,,0.00,374.000000,,2013-02-01 02:01:00,
2013-01-31 16:11:00,65.0,59.0,-100.00,ESE,110,3.0,10.0,81,0.00,,,0.00,374.000000,,2013-02-01 02:11:00,
2013-01-31 16:21:00,65.0,59.0,-100.00,ESE,110,3.0,10.0,81,0.00,,,0.00,374.000000,,2013-02-01 02:21:00,
2013-01-31 16:42:00,65.0,58.0,-100.00,NE,38,2.0,7.0,79,0.00,,,0.00,254.000000,,2013-02-01 02:42:00,
2013-01-31 16:52:00,65.0,58.0,-100.00,NE,38,2.0,7.0,79,0.00,,,0.00,254.000000,,2013-02-01 02:52:00,
2013-01-31 17:01:00,65.0,58.0,-100.00,NE,38,2.0,7.0,79,0.00,,,0.00,254.000000,,2013-02-01 03:01:00,
2013-01-31 17:11:00,65.0,58.0,-100.00,NE,38,2.0,7.0,79,0.00,,,0.00,254.000000,,2013-02-01 03:11:00,
2013-01-31 17:21:00,65.0,58.0,-100.00,NE,38,2.0,7.0,79,0.00,,,0.00,254.000000,,2013-02-01 03:21:00,
2013-01-31 17:42:00,64.0,59.0,-100.00,NE,42,2.0,8.0,85,0.00,,,0.00,134.000000,,2013-02-01 03:42:00,
2013-01-31 17:52:00,64.0,59.0,-100.00,NE,42,2.0,8.0,85,0.00,,,0.00,134.000000,,2013-02-01 03:52:00,
2013-01-31 18:02:00,64.0,59.0,-100.00,NE,42,2.0,8.0,85,0.00,,,0.00,134.000000,,2013-02-01 04:02:00,
2013-01-31 18:11:00,64.0,59.0,-100.00,NE,42,2.0,8.0,85,0.00,,,0.00,134.000000,,2013-02-01 04:11:00,
2013-01-31 18:21:00,64.0,59.0,-100.00,NE,42,2.0,8.0,85,0.00,,,0.00,134.000000,,2013-02-01 04:21:00,
2013-01-31 18:42:00,62.0,58.0,-100.00,NNE,26,1.0,7.0,88,0.00,,,0.00,57.000000,,2013-02-01 04:42:00,
2013-01-31 18:52:00,62.0,58.0,-100.00,NNE,26,1.0,7.0,88,0.00,,,0.00,57.000000,,2013-02-01 04:52:00,
2013-01-31 19:03:00,62.0,58.0,-100.00,NNE,26,1.0,7.0,88,0.00,,,0.00,57.000000,,2013-02-01 05:03:00,
2013-01-31 19:11:00,62.0,58.0,-100.00,NNE,26,1.0,7.0,88,0.00,,,0.00,57.000000,,2013-02-01 05:11:00,
2013-01-31 19:22:00,62.0,58.0,-100.00,NNE,26,1.0,7.0,88,0.00,,,0.00,57.000000,,2013-02-01 05:22:00,
2013-01-31 19:42:00,60.0,-99.9,-100.00,NNE,16,1.0,2.0,-999,0.00,,,0.00,3.000000,,2013-02-01 05:42:00,
2013-01-31 19:52:00,60.0,-99.9,-100.00,NNE,16,1.0,2.0,-999,0.00,,,0.00,3.000000,,2013-02-01 05:52:00,
2013-01-31 20:02:00,60.0,-99.9,-100.00,NNE,16,1.0,2.0,-999,0.00,,,0.00,3.000000,,2013-02-01 06:02:00,
2013-01-31 20:12:00,60.0,-99.9,-100.00,NNE,16,1.0,2.0,-999,0.00,,,0.00,3.000000,,2013-02-01 06:12:00,
2013-01-31 20:22:00,60.0,-99.9,-100.00,NNE,16,1.0,2.0,-999,0.00,,,0.00,3.000000,,2013-02-01 06:22:00,
2013-01-31 20:42:00,58.0,-99.9,-100.00,North,8,1.0,4.0,-999,0.00,,,0.00,0.000000,,2013-02-01 06:42:00,
2013-01-31 20:52:00,58.0,-99.9,-100.00,North,8,1.0,4.0,-999,0.00,,,0.00,0.000000,,2013-02-01 06:52:00,
2013-01-31 21:02:00,58.0,-99.9,-100.00,North,8,1.0,4.0,-999,0.00,,,0.00,0.000000,,2013-02-01 07:02:00,
2013-01-31 21:12:00,58.0,-99.9,-100.00,North,8,1.0,4.0,-999,0.00,,,0.00,0.000000,,2013-02-01 07:12:00,
2013-01-31 21:22:00,58.0,-99.9,-100.00,North,8,1.0,4.0,-999,0.00,,,0.00,0.000000,,2013-02-01 07:22:00,
2013-01-31 21:42:00,56.0,-99.9,-100.00,North,351,2.0,4.0,-999,0.00,,,0.00,0.000000,,2013-02-01 07:42:00,
2013-01-31 21:52:00,56.0,-99.9,-100.00,North,351,2.0,4.0,-999,0.00,,,0.00,0.000000,,2013-02-01 07:52:00,
2013-01-31 22:02:00,56.0,-99.9,-100.00,North,351,2.0,4.0,-999,0.00,,,0.00,0.000000,,2013-02-01 08:02:00,
2013-01-31 22:11:00,56.0,-99.9,-100.00,North,351,2.0,4.0,-999,0.00,,,0.00,0.000000,,2013-02-01 08:11:00,
2013-01-31 22:22:00,56.0,-99.9,-100.00,North,351,2.0,4.0,-999,0.00,,,0.00,0.000000,,2013-02-01 08:22:00,
2013-01-31 22:42:00,55.0,-99.9,-100.00,North,353,3.0,6.0,-999,0.00,,,0.00,0.000000,,2013-02-01 08:42:00,
2013-01-31 22:52:00,55.0,-99.9,-100.00,North,353,3.0,6.0,-999,0.00,,,0.00,0.000000,,2013-02-01 08:52:00,
2013-01-31 23:02:00,55.0,-99.9,-100.00,North,353,3.0,6.0,-999,0.00,,,0.00,0.000000,,2013-02-01 09:02:00,
2013-01-31 23:11:00,55.0,-99.9,-100.00,North,353,3.0,6.0,-999,0.00,,,0.00,0.000000,,2013-02-01 09:11:00,
2013-01-31 23:22:00,55.0,-99.9,-100.00,North,353,3.0,6.0,-999,0.00,,,0.00,0.000000,,2013-02-01 09:22:00,
2013-01-31 23:42:00,54.0,-99.9,-100.00,North,352,3.0,6.0,-999,0.00,,,0.00,0.000000,,2013-02-01 09:42:00,
2013-01-31 23:52:00,54.0,-99.9,-100.00,North,352,3.0,6.0,-999,0.00,,,0.00,0.000000,,2013-02-01 09:52:00,